ATLAS 5 CENTAUR DEB, 44107

Orbit data source: Space-Track

ATLAS 5 CENTAUR DEB, 44107 is space debris in HEO originally from a launch on Wed, 17 Sep 2014 UTC launched from the Air Force Eastern Test Range (AFETR). Debris objects in space refer to the collection of defunct objects orbiting the Earth. Examples of debris include non-operational satellites, rocket bodies, and fragments generated from explosions, collisions, or faulty payload assembly.

Loading next visibility...
Identifier
44107, 2014-055CC
Orbit
HEO
Country
Flag of USUS
Related business
Flag of USUnited Launch Alliance/Lockheed Martin (US)
Manufacturer
Unknown
Mission
Spacecraft
Bus & Motor
Unknown
Mass
Unknown
Launch date (UTC)
2014-09-17 (12 years ago)
Launch vehicle
Unknown
Launch site
Air Force Eastern Test Range (AFETR)
Object type
Payload
Rocket body
Debris
Shape & HBR
Unknown shape, 1.1 m
Radar Cross Section
Medium (>0.1 m² and <1 m²)

Expand to show TLE details & history
Last TLE update: 1 day ago

TLE from 1 day ago
0 ATLAS 5 CENTAUR DEB
1 44107U 14055CC  26256.20938506 -.00000028  00000-0  00000-0 0  9996
2 44107  19.1095 182.1674 4751046  98.6460 315.8987  1.75839337 48089
Epoch: 2026-09-13T05:01Z
TLE epoch observation values (Epoch: 2026-09-13T05:01:30.869Z)
Latitude
0.00001°
Longitude
114.5267°
Altitude
17,840.869 km
Speed
4.378 km/s
True Right ascension
12h 08m 27s
True Declination
0° 00' 00"
Sunlit
Object was in daylight at epoch
Visualization orbit readout
Latitude
Unknown
Longitude
Unknown
Altitude
Unknown
Speed
Unknown
Apparent Right ascension
Unknown
Apparent Declination
Unknown
Sunlit
N/A
Visualization observer readout
Local Sidereal Time
04:16:39
Azimuth
Unknown
Elevation
Unknown
Doppler factor
Unknown
Orbital elements
Apogee altitude
36,395.442 km
Perigee altitude
8,842.245 km
Semi-major axis
28,996.98 km
Eccentricity
0.4751
Inclination
19.1095°
RAAN
182.1674°
Arg. of periapsis
98.646°
True anomaly
261.25805°
Mean anomaly
315.8987°
Eccentric anomaly
290.38141°
Mean motion
0.43956 °/min
Orbital period
819.01 mins
BSTAR
0
Loading maneuver chart data...
Computing Atmospheric mass density...

Documentation

Showing up to 5 results
|